{"data":{"norad_id":58968,"intl_designator":"2024-031D","name":"STARLINK-31356","alt_names":[],"object_type":"PAYLOAD","status":"ACTIVE","operator":null,"country":"US","launch_date":"2024-02-15","launch_site_code":"AFWTR","launch_vehicle":null,"mission":null,"orbit_class":"UNKNOWN","rcs_meters":null,"size_class":null,"mass_kg":null,"dimensions":null,"purposes":["comms"],"wikipedia_slug":null,"has_3d_model":false,"image_url":null,"decayed_at":null,"tle_current":{"epoch":"2026-05-24T18:52:54.244416Z","epoch_age_seconds":96649,"freshness":"FRESH","line1":"1 58968U 24031D   26144.78673894  .00000254  00000+0  20711-4 0  9990","line2":"2 58968  53.1603 275.3752 0000966 105.6148 254.4960 15.30198265128576","mean_motion":15.30198265,"eccentricity":9.66e-5,"inclination_deg":53.1603,"raan_deg":275.3752,"arg_perigee_deg":105.6148,"mean_anomaly_deg":254.496,"bstar":2.0711e-5,"rev_number":12857,"period_min":94.105452406849,"perigee_km":474.55821551115,"apogee_km":475.88228413182,"semimajor_km":6853.3572498215,"source":"CELESTRAK","updated_at":"2026-05-25T13:38:18.793491Z"}}}